N54PS KPDX-KPDX

Flight info

Callsign N54PS
Flight time 0h 5m
Altitude VFR
Route VFR
Aircraft P28B/L-DOV/C

Departure

Time 2026-05-08 02:13
Airport Portland International Airport (KPDX)

Arrival

Time 2026-05-08 02:18
Airport Portland International Airport (KPDX)
Time Latitude Longitude Altitude Speed Heading
2026-05-08 01:54 45.58287 -122.59796 25 ft 0 kts 310°
2026-05-08 01:57 45.58312 -122.59778 26 ft 13 kts 30°
2026-05-08 01:57 45.58368 -122.59859 28 ft 13 kts 278°
2026-05-08 01:57 45.58390 -122.59912 28 ft 12 kts 329°
2026-05-08 01:57 45.58399 -122.59917 29 ft 0 kts 357°
2026-05-08 02:01 45.58412 -122.59918 28 ft 0 kts 353°
2026-05-08 02:03 45.58430 -122.59916 29 ft 11 kts 29°
2026-05-08 02:04 45.58506 -122.59895 29 ft 11 kts 324°
2026-05-08 02:04 45.58545 -122.59982 30 ft 9 kts 298°
2026-05-08 02:04 45.58575 -122.60057 31 ft 7 kts 304°
2026-05-08 02:04 45.58578 -122.60064 30 ft 0 kts 301°
2026-05-08 02:05 45.58583 -122.60076 30 ft 8 kts 296°
2026-05-08 02:05 45.58593 -122.60101 30 ft 0 kts 314°
2026-05-08 02:10 45.58593 -122.60102 30 ft 1 kts 314°
2026-05-08 02:10 45.58622 -122.60106 29 ft 0 kts 27°
2026-05-08 02:11 45.58637 -122.60095 29 ft 12 kts 27°
2026-05-08 02:11 45.58706 -122.60079 29 ft 8 kts 325°
2026-05-08 02:11 45.58713 -122.60091 29 ft 0 kts 300°
2026-05-08 02:12 45.58714 -122.60093 29 ft 5 kts 300°
2026-05-08 02:12 45.58844 -122.60428 25 ft 68 kts 300°
2026-05-08 02:12 45.59113 -122.61085 254 ft 75 kts 301°
2026-05-08 02:13 45.58969 -122.61592 600 ft 63 kts 186°
2026-05-08 02:13 45.58607 -122.61249 797 ft 76 kts 129°
2026-05-08 02:13 45.58267 -122.60584 962 ft 90 kts 124°
2026-05-08 02:13 45.57929 -122.59822 1177 ft 94 kts 122°
2026-05-08 02:14 45.57596 -122.58992 1360 ft 100 kts 120°
2026-05-08 02:14 45.57248 -122.58087 1458 ft 109 kts 118°
2026-05-08 02:14 45.56893 -122.57126 1574 ft 111 kts 119°
2026-05-08 02:14 45.56507 -122.56116 1576 ft 119 kts 120°
2026-05-08 02:15 45.56160 -122.55217 1689 ft 114 kts 118°
2026-05-08 02:15 45.56031 -122.54869 1708 ft 116 kts 118°
2026-05-08 02:15 45.55639 -122.53853 1737 ft 119 kts 119°
2026-05-08 02:15 45.55654 -122.52782 1791 ft 119 kts 52°
2026-05-08 02:16 45.56413 -122.52254 1698 ft 123 kts 15°
2026-05-08 02:16 45.57083 -122.52483 1565 ft 94 kts 299°
2026-05-08 02:16 45.56999 -122.53373 1185 ft 93 kts 237°
2026-05-08 02:16 45.56574 -122.54044 869 ft 90 kts 227°
2026-05-08 02:17 45.56605 -122.54777 688 ft 78 kts 304°
2026-05-08 02:17 45.56898 -122.55410 503 ft 75 kts 301°
2026-05-08 02:17 45.57128 -122.56034 379 ft 66 kts 297°
2026-05-08 02:17 45.57369 -122.56667 359 ft 77 kts 297°
2026-05-08 02:18 45.57650 -122.57374 268 ft 85 kts 299°
2026-05-08 02:18 45.57957 -122.58141 137 ft 91 kts 298°
2026-05-08 02:18 45.58253 -122.58909 34 ft 79 kts 298°
2026-05-08 02:18 45.58465 -122.59450 28 ft 30 kts 298°
2026-05-08 02:19 45.58561 -122.59701 33 ft 29 kts 298°
2026-05-08 02:19 45.58642 -122.59916 33 ft 20 kts 296°
2026-05-08 02:19 45.58696 -122.60045 30 ft 11 kts 300°
2026-05-08 02:19 45.58722 -122.60108 29 ft 0 kts 327°